TimeCST,TemperatureF,Dew PointF,Humidity,Sea Level PressureIn,VisibilityMPH,Wind Direction,Wind SpeedMPH,Gust SpeedMPH,PrecipitationIn,Events,Conditions,WindDirDegrees,DateUTC
12:53 AM,36.0,21.0,55,30.35,10.0,East,4.6,-,N/A,,Clear,80,2014-01-09 06:53:00
1:53 AM,34.0,21.0,59,30.35,10.0,North,3.5,-,N/A,,Clear,10,2014-01-09 07:53:00
2:53 AM,34.0,24.1,67,30.34,10.0,Calm,Calm,-,N/A,,Clear,0,2014-01-09 08:53:00
3:53 AM,30.9,23.0,72,30.33,10.0,NNW,4.6,-,N/A,,Clear,340,2014-01-09 09:53:00
4:53 AM,34.0,19.0,54,30.33,10.0,North,3.5,-,N/A,,Clear,10,2014-01-09 10:53:00
5:53 AM,35.1,19.9,54,30.34,10.0,North,4.6,-,N/A,,Clear,10,2014-01-09 11:53:00
6:53 AM,36.0,21.9,57,30.34,10.0,East,8.1,-,N/A,,Clear,80,2014-01-09 12:53:00
7:53 AM,39.9,25.0,55,30.35,10.0,ENE,4.6,-,N/A,,Clear,70,2014-01-09 13:53:00
8:53 AM,46.9,28.9,50,30.37,10.0,NE,5.8,-,N/A,,Clear,40,2014-01-09 14:53:00
9:53 AM,53.1,35.1,50,30.35,10.0,ENE,5.8,-,N/A,,Clear,70,2014-01-09 15:53:00
10:53 AM,57.9,39.0,49,30.34,10.0,ENE,5.8,-,N/A,,Clear,70,2014-01-09 16:53:00
11:53 AM,60.1,44.1,55,30.31,10.0,SSE,9.2,-,N/A,,Clear,150,2014-01-09 17:53:00
12:53 PM,61.0,44.1,54,30.27,10.0,ESE,11.5,-,N/A,,Scattered Clouds,120,2014-01-09 18:53:00
1:53 PM,59.0,44.1,58,30.25,10.0,SE,11.5,-,N/A,,Partly Cloudy,140,2014-01-09 19:53:00
2:53 PM,60.1,46.0,60,30.25,10.0,ESE,11.5,-,N/A,,Clear,120,2014-01-09 20:53:00
3:53 PM,60.1,46.0,60,30.24,10.0,ESE,6.9,-,N/A,,Clear,120,2014-01-09 21:53:00
5:53 PM,52.0,44.1,74,30.25,10.0,SE,5.8,-,N/A,,Clear,130,2014-01-09 23:53:00
6:53 PM,48.0,43.0,83,30.26,10.0,Calm,Calm,-,N/A,,Clear,0,2014-01-10 00:53:00
7:53 PM,46.9,43.0,86,30.26,10.0,Calm,Calm,-,N/A,,Clear,0,2014-01-10 01:53:00
8:53 PM,46.9,43.0,86,30.26,10.0,Calm,Calm,-,N/A,,Clear,0,2014-01-10 02:53:00
9:53 PM,48.0,42.1,80,30.25,10.0,East,4.6,-,N/A,,Clear,90,2014-01-10 03:53:00
10:53 PM,45.0,41.0,86,30.24,10.0,NNE,3.5,-,N/A,,Clear,30,2014-01-10 04:53:00
11:22 PM,48.0,42.1,80,30.24,10.0,ENE,4.6,-,N/A,,Scattered Clouds,60,2014-01-10 05:22:00
11:30 PM,48.0,43.0,83,30.23,10.0,ENE,4.6,-,N/A,,Mostly Cloudy,70,2014-01-10 05:30:00
11:53 PM,48.9,44.1,83,30.23,10.0,ENE,4.6,-,N/A,,Overcast,70,2014-01-10 05:53:00